| time (UTC) | temp F | wind direction | speed MPH | gust MPH | rain 1hr in | rain 24hr in | rain mn in | humidity % | barometer mb |
| 20260903023016 | 59 | 200 | 0.0 | 0.0 | 0.00 | 0.00 | 0.00 | 18 | 1011.6 |
| 20260903021558 | 59 | 200 | 0.0 | 0.0 | 0.00 | 0.00 | 0.00 | 21 | 1011.6 |
| 20260903020100 | 60 | 200 | 0.0 | 1.0 | 0.00 | 0.00 | 0.00 | 27 | 1011.4 |
| 20260903014604 | 60 | 207 | 0.0 | 2.0 | 0.00 | 0.00 | 0.00 | 28 | 1011.4 |
| 20260903013046 | 60 | 215 | 2.0 | 4.0 | 0.00 | 0.00 | 0.00 | 37 | 1011.4 |
| 20260903011545 | 61 | 203 | 1.0 | 4.0 | 0.00 | 0.00 | 0.00 | 58 | 1011.4 |
| 20260903010045 | 62 | 197 | 1.0 | 5.0 | 0.00 | 0.00 | 0.00 | 60 | 1011.4 |
| 20260903004546 | 63 | 204 | 2.0 | 4.0 | 0.00 | 0.00 | 0.00 | 56 | 1011.4 |
| 20260903003042 | 64 | 198 | 2.0 | 6.0 | 0.00 | 0.00 | 0.00 | 49 | 1011.5 |
| 20260903001540 | 64 | 190 | 2.0 | 6.0 | 0.00 | 0.00 | 0.00 | 51 | 1011.6 |
| 20260903000039 | 65 | 190 | 3.0 | 7.0 | 0.00 | 0.00 | 0.00 | 48 | 1011.7 |
| 20260902234520 | 65 | 231 | 2.0 | 7.0 | 0.00 | 0.00 | 0.00 | 45 | 1011.8 |
| 20260902233019 | 65 | 166 | 2.0 | 6.0 | 0.00 | 0.00 | 0.00 | 48 | 1011.9 |
| 20260902231600 | 65 | 181 | 3.0 | 9.0 | 0.00 | 0.00 | 0.00 | 49 | 1012.0 |
| 20260902230108 | 65 | 221 | 3.0 | 10.0 | 0.00 | 0.00 | 0.00 | 48 | 1012.2 |
| 20260902224545 | 66 | 195 | 2.0 | 8.0 | 0.00 | 0.00 | 0.00 | 47 | 1012.2 |
| 20260902223037 | 68 | 183 | 5.0 | 9.0 | 0.00 | 0.00 | 0.00 | 44 | 1012.4 |
| 20260902221519 | 68 | 183 | 2.0 | 8.0 | 0.00 | 0.00 | 0.00 | 41 | 1012.6 |
| 20260902220017 | 68 | 179 | 2.0 | 8.0 | 0.00 | 0.00 | 0.00 | 41 | 1012.7 |
| 20260902214558 | 69 | 193 | 4.0 | 7.0 | 0.00 | 0.00 | 0.00 | 37 | 1012.9 |
| 20260902213106 | 70 | 203 | 4.0 | 9.0 | 0.00 | 0.00 | 0.00 | 26 | 1013.1 |
| 20260902211536 | 71 | 194 | 3.0 | 8.0 | 0.00 | 0.00 | 0.00 | 25 | 1013.2 |
| 20260902210050 | 71 | 210 | 3.0 | 8.0 | 0.00 | 0.00 | 0.00 | 23 | 1013.3 |
| 20260902204517 | 71 | 186 | 2.0 | 7.0 | 0.00 | 0.00 | 0.00 | 22 | 1013.4 |
| 20260902203016 | 71 | 200 | 2.0 | 9.0 | 0.00 | 0.00 | 0.00 | 24 | 1013.4 |
| 20260902201556 | 70 | 200 | 2.0 | 8.0 | 0.00 | 0.00 | 0.00 | 27 | 1013.5 |
| 20260902200054 | 70 | 163 | 3.0 | 8.0 | 0.00 | 0.00 | 0.00 | 27 | 1013.6 |
| 20260902194538 | 69 | 181 | 3.0 | 8.0 | 0.00 | 0.00 | 0.00 | 26 | 1013.9 |
| 20260902193034 | 68 | 176 | 3.0 | 8.0 | 0.00 | 0.00 | 0.00 | 28 | 1013.9 |
| 20260902191515 | 68 | 233 | 4.0 | 7.0 | 0.00 | 0.00 | 0.00 | 24 | 1014.0 |
| 20260902190010 | 68 | 181 | 2.0 | 8.0 | 0.00 | 0.00 | 0.00 | 21 | 1014.1 |
| 20260902184602 | 67 | 180 | 3.0 | 9.0 | 0.00 | 0.00 | 0.00 | 26 | 1014.3 |
| 20260902183052 | 66 | 165 | 3.0 | 6.0 | 0.00 | 0.00 | 0.00 | 25 | 1014.4 |
| 20260902181526 | 65 | 165 | 2.0 | 6.0 | 0.00 | 0.00 | 0.00 | 25 | 1014.4 |
| 20260902180024 | 64 | 212 | 2.0 | 7.0 | 0.00 | 0.00 | 0.00 | 25 | 1014.6 |
| 20260902174506 | 64 | 185 | 2.0 | 6.0 | 0.00 | 0.00 | 0.00 | 22 | 1014.5 |
| 20260902173004 | 64 | 192 | 2.0 | 5.0 | 0.00 | 0.00 | 0.00 | 22 | 1014.6 |
| 20260902171604 | 63 | 177 | 2.0 | 5.0 | 0.00 | 0.00 | 0.00 | 22 | 1014.4 |
| 20260902170044 | 63 | 180 | 1.0 | 7.0 | 0.00 | 0.00 | 0.00 | 22 | 1014.3 |
| 20260902164542 | 63 | 169 | 2.0 | 5.0 | 0.00 | 0.00 | 0.00 | 22 | 1014.1 |
| 20260902163019 | 62 | 188 | 1.0 | 5.0 | 0.00 | 0.00 | 0.00 | 22 | 1014.0 |
| 20260902161524 | 61 | 218 | 1.0 | 3.0 | 0.00 | 0.00 | 0.00 | 22 | 1013.9 |
| 20260902160057 | 60 | 287 | 0.0 | 2.0 | 0.00 | 0.00 | 0.00 | 22 | 1013.9 |
| 20260902154554 | 60 | 231 | 0.0 | 3.0 | 0.00 | 0.00 | 0.00 | 23 | 1013.6 |
| 20260902153040 | 59 | 273 | 0.0 | 2.0 | 0.00 | 0.00 | 0.00 | 23 | 1013.5 |
| 20260902151538 | 58 | 160 | 0.0 | 2.0 | 0.00 | 0.00 | 0.00 | 25 | 1013.5 |
| 20260902150037 | 58 | 248 | 0.0 | 1.0 | 0.00 | 0.00 | 0.00 | 24 | 1013.5 |
| 20260902144539 | 57 | 245 | 1.0 | 2.0 | 0.00 | 0.00 | 0.00 | 24 | 1013.5 |
| 20260902143035 | 57 | 248 | 0.0 | 1.0 | 0.00 | 0.00 | 0.00 | 24 | 1013.5 |
| 20260902141538 | 57 | 249 | 0.0 | 1.0 | 0.00 | 0.00 | 0.00 | 23 | 1013.3 |
| 20260902140036 | 58 | 258 | 1.0 | 3.0 | 0.00 | 0.00 | 0.00 | 22 | 1013.0 |
| 20260902134534 | 57 | 281 | 0.0 | 2.0 | 0.00 | 0.00 | 0.00 | 22 | 1012.9 |
| 20260902133010 | 58 | 277 | 1.0 | 3.0 | 0.00 | 0.00 | 0.00 | 20 | 1012.8 |
| 20260902131510 | 58 | 288 | 1.0 | 3.0 | 0.00 | 0.00 | 0.00 | 19 | 1012.7 |
| 20260902130053 | 58 | 246 | 1.0 | 5.0 | 0.00 | 0.00 | 0.00 | 20 | 1012.6 |
| 20260902124553 | 58 | 256 | 1.0 | 3.0 | 0.00 | 0.00 | 0.00 | 21 | 1012.5 |
| 20260902123030 | 58 | 258 | 1.0 | 3.0 | 0.00 | 0.00 | 0.00 | 22 | 1012.6 |
| 20260902121530 | 58 | 256 | 1.0 | 4.0 | 0.00 | 0.00 | 0.00 | 23 | 1012.6 |
| 20260902120012 | 58 | 179 | 1.0 | 3.0 | 0.00 | 0.00 | 0.00 | 22 | 1012.6 |
| 20260902114514 | 58 | 244 | 1.0 | 3.0 | 0.00 | 0.00 | 0.00 | 22 | 1012.5 |
| 20260902113058 | 58 | 243 | 1.0 | 4.0 | 0.00 | 0.00 | 0.00 | 26 | 1012.5 |
| 20260902111552 | 58 | 160 | 1.0 | 7.0 | 0.00 | 0.00 | 0.00 | 38 | 1012.5 |
| 20260902110032 | 58 | 226 | 2.0 | 6.0 | 0.00 | 0.00 | 0.00 | 40 | 1012.6 |
| 20260902104531 | 58 | 197 | 2.0 | 7.0 | 0.00 | 0.00 | 0.00 | 32 | 1012.8 |
| 20260902103011 | 58 | 176 | 2.0 | 6.0 | 0.00 | 0.00 | 0.00 | 28 | 1012.8 |
| 20260902101513 | 57 | 231 | 2.0 | 6.0 | 0.00 | 0.00 | 0.00 | 23 | 1012.7 |
| 20260902100106 | 57 | 195 | 2.0 | 6.0 | 0.00 | 0.00 | 0.00 | 23 | 1012.8 |
| 20260902094548 | 56 | 208 | 1.0 | 5.0 | 0.00 | 0.00 | 0.00 | 26 | 1012.7 |
| 20260902093029 | 56 | 203 | 1.0 | 4.0 | 0.00 | 0.00 | 0.00 | 27 | 1012.6 |
| 20260902091555 | 57 | 212 | 2.0 | 6.0 | 0.00 | 0.00 | 0.00 | 27 | 1012.7 |
| 20260902090008 | 57 | 205 | 3.0 | 5.0 | 0.00 | 0.00 | 0.00 | 27 | 1012.7 |
| 20260902084509 | 57 | 203 | 2.0 | 5.0 | 0.00 | 0.00 | 0.00 | 26 | 1012.9 |
| 20260902083047 | 57 | 207 | 1.0 | 5.0 | 0.00 | 0.00 | 0.00 | 26 | 1012.9 |
| 20260902081547 | 56 | 228 | 1.0 | 6.0 | 0.00 | 0.00 | 0.00 | 27 | 1012.8 |
| 20260902080036 | 56 | 181 | 2.0 | 4.0 | 0.00 | 0.00 | 0.00 | 27 | 1012.9 |
| 20260902074554 | 57 | 233 | 1.0 | 4.0 | 0.00 | 0.00 | 0.00 | 27 | 1012.7 |
| 20260902073011 | 57 | 245 | 1.0 | 5.0 | 0.00 | 0.00 | 0.00 | 26 | 1012.6 |
| 20260902071528 | 57 | 238 | 1.0 | 5.0 | 0.00 | 0.00 | 0.00 | 27 | 1012.5 |
| 20260902070052 | 56 | 243 | 0.0 | 2.0 | 0.00 | 0.00 | 0.00 | 27 | 1012.6 |
| 20260902064551 | 56 | 248 | 0.0 | 1.0 | 0.00 | 0.00 | 0.00 | 27 | 1012.3 |
| 20260902063133 | 56 | 233 | 0.0 | 1.0 | 0.00 | 0.00 | 0.00 | 26 | 1012.3 |
| 20260902061541 | 57 | 239 | 0.0 | 2.0 | 0.00 | 0.00 | 0.00 | 26 | 1012.3 |
| 20260902060020 | 57 | 239 | 0.0 | 3.0 | 0.00 | 0.00 | 0.00 | 26 | 1012.3 |
| 20260902054522 | 58 | 250 | 1.0 | 2.0 | 0.00 | 0.00 | 0.00 | 25 | 1012.3 |
| 20260902053053 | 58 | 255 | 0.0 | 1.0 | 0.00 | 0.00 | 0.00 | 25 | 1012.5 |
| 20260902051549 | 58 | 245 | 0.0 | 2.0 | 0.00 | 0.00 | 0.00 | 24 | 1012.6 |
| 20260902050042 | 58 | 245 | 0.0 | 3.0 | 0.00 | 0.00 | 0.00 | 23 | 1012.5 |
| 20260902044532 | 59 | 255 | 0.0 | 3.0 | 0.00 | 0.00 | 0.00 | 22 | 1012.6 |
| 20260902043012 | 60 | 260 | 1.0 | 3.0 | 0.00 | 0.00 | 0.00 | 21 | 1012.5 |
| 20260902041511 | 60 | 285 | 1.0 | 3.0 | 0.00 | 0.00 | 0.00 | 21 | 1012.3 |
| 20260902040057 | 60 | 287 | 1.0 | 2.0 | 0.00 | 0.00 | 0.00 | 21 | 1012.1 |
| 20260902034554 | 60 | 288 | 1.0 | 2.0 | 0.00 | 0.00 | 0.00 | 20 | 1011.8 |
| 20260902033041 | 61 | 288 | 1.0 | 3.0 | 0.00 | 0.00 | 0.00 | 19 | 1011.7 |
| 20260902031541 | 60 | 290 | 1.0 | 3.0 | 0.00 | 0.00 | 0.00 | 20 | 1011.3 |
| 20260902030040 | 60 | 285 | 1.0 | 2.0 | 0.00 | 0.00 | 0.00 | 21 | 1011.3 |
| 20260902024540 | 60 | 285 | 1.0 | 2.0 | 0.00 | 0.00 | 0.00 | 22 | 1011.1 |